OH2TI Weather Reports


time (UTC)temp
C
wind
direction
speed
KPH
gust
KPH
rain 1hr
cm
rain 24hr
cm
rain mn
cm
humidity
%
barometer
mb
20260506182202 7 167 3.2 6.4 0.00 0.00 0.00 62 1010.6
20260506180906 7 202 1.6 4.8 0.00 0.00 0.00 59 1010.5
20260506175714 7 195 6.4 11.3 0.00 0.00 0.00 61 1010.5
20260506175152 8 157 3.2 6.4 0.00 0.00 0.00 58 1010.5
20260506174152 8 215 3.2 9.7 0.00 0.00 0.00 47 1010.5
20260506173119 8 189 3.2 8.0 0.00 0.00 0.00 47 1010.5
20260506172119 9 195 6.4 11.3 0.00 0.00 0.00 46 1010.5
20260506170709 9 218 6.4 12.9 0.00 0.00 0.00 45 1010.5
20260506165619 9 232 4.8 9.7 0.00 0.00 0.00 46 1010.4
20260506164629 9 215 8.0 12.9 0.00 0.00 0.00 45 1010.4
20260506163929 9 197 8.0 17.7 0.00 0.00 0.00 47 1010.4
20260506162522 9 202 4.8 11.3 0.00 0.00 0.00 48 1010.3
20260506161449 9 232 4.8 9.7 0.00 0.00 0.00 48 1010.4
20260506160904 9 209 6.4 14.5 0.00 0.00 0.00 47 1010.4
20260506160232 9 205 14.5 19.3 0.00 0.00 0.00 45 1010.3
20260506155442 10 198 6.4 14.5 0.00 0.00 0.00 44 1010.3
20260506154744 10 228 8.0 14.5 0.00 0.00 0.00 43 1010.4
20260506154154 10 237 6.4 17.7 0.00 0.00 0.00 42 1010.4
20260506153534 10 212 8.0 16.1 0.00 0.00 0.00 43 1010.4
20260506152139 8 190 9.7 19.3 0.00 0.00 0.00 49 1010.3
20260506151306 8 212 9.7 14.5 0.00 0.00 0.00 50 1010.4
20260506150602 8 198 9.7 19.3 0.00 0.00 0.00 50 1010.3
20260506145305 8 206 11.3 19.3 0.00 0.00 0.00 49 1010.6
20260506144519 8 200 12.9 22.5 0.00 0.00 0.00 49 1010.6
20260506143119 9 214 11.3 17.7 0.00 0.00 0.00 46 1010.6
20260506142239 9 213 9.7 14.5 0.00 0.00 0.00 44 1010.6
20260506140759 10 206 11.3 24.1 0.00 0.00 0.00 43 1010.4
20260506135804 10 203 11.3 19.3 0.00 0.00 0.00 39 1010.5
20260506134944 10 240 8.0 17.7 0.00 0.00 0.00 39 1010.5
20260506134219 10 213 11.3 24.1 0.00 0.00 0.00 40 1010.5
20260506133329 10 231 9.7 19.3 0.00 0.00 0.00 41 1010.6
20260506132734 10 198 11.3 24.1 0.00 0.00 0.00 42 1010.5
20260506132221 10 198 11.3 20.9 0.00 0.00 0.00 41 1010.4
20260506131019 10 203 14.5 30.6 0.00 0.00 0.00 40 1010.3
20260506125802 10 207 11.3 22.5 0.00 0.00 0.00 41 1010.3
20260506124654 9 197 16.1 29.0 0.00 0.00 0.00 45 1010.4
20260506123619 9 193 12.9 29.0 0.00 0.00 0.00 47 1010.4
20260506123042 10 190 9.7 27.4 0.00 0.00 0.00 47 1010.3
20260506121642 9 196 14.5 27.4 0.00 0.00 0.00 49 1010.4
20260506120659 8 198 9.7 20.9 0.00 0.00 0.00 54 1010.3
20260506115232 7 212 11.3 22.5 0.00 0.00 0.00 59 1010.2
20260506114412 7 210 12.9 25.7 0.00 0.00 0.00 59 1010.4
20260506113539 7 215 11.3 25.7 0.00 0.00 0.00 59 1010.3
20260506112542 7 195 9.7 17.7 0.00 0.00 0.00 60 1010.3
20260506111536 7 198 11.3 24.1 0.00 0.00 0.00 59 1010.2
20260506110409 8 193 8.0 20.9 0.00 0.00 0.00 57 1010.3
20260506104951 8 200 11.3 20.9 0.00 0.00 0.00 53 1010.3
20260506103959 8 192 9.7 24.1 0.00 0.00 0.00 55 1010.2
20260506103349 8 199 6.4 17.7 0.00 0.00 0.00 55 1010.1
20260506102644 9 191 4.8 12.9 0.00 0.00 0.00 52 1010.2
20260506101219 9 123 3.2 6.4 0.00 0.00 0.00 47 1010.3
20260506100429 10 288 4.8 9.7 0.00 0.00 0.00 31 1010.2
20260506095036 9 332 8.0 16.1 0.00 0.00 0.00 34 1010.0
20260506094532 9 342 12.9 20.9 0.00 0.00 0.00 34 1010.0
20260506093342 10 327 9.7 16.1 0.00 0.00 0.00 33 1010.0
20260506092349 9 301 4.8 9.7 0.00 0.00 0.00 35 1009.9
20260506091124 9 318 11.3 19.3 0.00 0.00 0.00 35 1009.7
20260506085636 8 316 12.9 25.7 0.00 0.00 0.00 35 1009.7
20260506084206 9 324 4.8 12.9 0.00 0.00 0.00 35 1009.7
20260506083236 8 304 6.4 14.5 0.00 0.00 0.00 37 1009.7
20260506081749 8 328 9.7 16.1 0.00 0.00 0.00 39 1009.6
20260506080449 8 351 9.7 19.3 0.00 0.00 0.00 39 1009.6
20260506073224 8 265 6.4 12.9 0.00 0.00 0.00 42 1009.4
20260506072312 8 315 9.7 16.1 0.00 0.00 0.00 43 1009.3
20260506070954 7 313 8.0 16.1 0.00 0.00 0.00 46 1009.2
20260506061919 7 291 4.8 8.0 0.00 0.00 0.00 54 1009.0
20260506060519 6 283 6.4 12.9 0.00 0.00 0.00 56 1008.8
20260506051134 5 315 9.7 16.1 0.00 0.00 0.00 65 1008.2
20260506044236 4 300 4.8 11.3 0.00 0.00 0.00 70 1007.8
20260506043319 3 309 8.0 16.1 0.00 0.00 0.00 70 1007.8
20260506041934 3 313 4.8 9.7 0.00 0.00 0.00 72 1007.7
20260506040604 3 313 3.2 11.3 0.00 0.00 0.00 73 1007.5
20260506040021 3 299 4.8 9.7 0.00 0.00 0.00 74 1007.5
20260506034702 2 298 4.8 8.0 0.00 0.00 0.00 76 1007.3
20260506033332 2 304 4.8 9.7 0.00 0.00 0.00 77 1007.2
20260506032449 2 271 3.2 8.0 0.00 0.00 0.00 77 1007.1
20260506031302 2 312 3.2 8.0 0.00 0.00 0.00 77 1007.0
20260506030032 1 274 3.2 6.4 0.00 0.00 0.00 78 1006.9
20260506025219 1 265 4.8 9.7 0.00 0.00 0.00 78 1006.8
20260506023842 1 266 4.8 9.7 0.00 0.00 0.00 79 1006.6
20260506023044 1 284 1.6 4.8 0.00 0.00 0.00 80 1006.6
20260506022344 1 276 1.6 4.8 0.00 0.00 0.00 80 1006.5
20260506021509 1 256 3.2 4.8 0.00 0.00 0.00 80 1006.5
20260506020936 1 268 1.6 3.2 0.00 0.00 0.00 80 1006.4
20260506015734 1 267 1.6 3.2 0.00 0.00 0.00 79 1006.2
20260506014729 1 295 1.6 4.8 0.00 0.00 0.00 79 1006.2
20260506013939 1 311 3.2 6.4 0.00 0.00 0.00 79 1006.2
20260506013224 1 307 4.8 9.7 0.00 0.00 0.00 79 1006.1
20260506012229 1 302 1.6 6.4 0.00 0.00 0.00 79 1006.1
20260506010906 1 280 1.6 3.2 0.00 0.00 0.00 78 1006.0
20260506010019 1 281 1.6 3.2 0.00 0.00 0.00 77 1006.0
20260506004549 1 280 3.2 6.4 0.00 0.00 0.00 77 1005.8
20260506003919 1 277 3.2 4.8 0.00 0.00 0.00 76 1005.7
20260506003149 1 305 3.2 8.0 0.00 0.00 0.00 76 1005.7
20260506002212 2 312 3.2 6.4 0.00 0.00 0.00 76 1005.6
20260506000739 2 304 4.8 9.7 0.00 0.00 0.00 75 1005.6
20260506000106 2 286 3.2 6.4 0.00 0.00 0.00 75 1005.6
20260505235519 2 292 3.2 6.4 0.00 0.00 0.00 75 1005.5
20260505234402 2 274 3.2 8.0 0.00 0.00 0.00 74 1005.5
20260505233809 2 285 3.2 9.7 0.00 0.00 0.00 74 1005.5
20260505232619 2 268 4.8 8.0 0.00 0.00 0.00 73 1005.4
20260505231659 2 266 4.8 8.0 0.00 0.00 0.00 72 1005.3
20260505231134 2 309 4.8 8.0 0.00 0.00 0.00 72 1005.3
20260505230359 2 284 4.8 9.7 0.00 0.00 0.00 72 1005.2
20260505225829 2 274 4.8 8.0 0.00 0.00 0.00 72 1005.2
20260505224332 3 297 3.2 8.0 0.00 0.00 0.00 71 1005.0
20260505222949 3 294 4.8 9.7 0.00 0.00 0.00 70 1004.9
20260505222122 3 305 4.8 9.7 0.00 0.00 0.00 70 1004.9
20260505220821 3 284 4.8 11.3 0.00 0.00 0.00 69 1004.8
20260505215502 3 287 4.8 16.1 0.00 0.00 0.00 68 1004.8
20260505214249 3 279 4.8 11.3 0.00 0.00 0.00 66 1004.8
20260505212814 3 255 6.4 12.9 0.00 0.00 0.00 65 1004.6
20260505212032 4 268 4.8 11.3 0.00 0.00 0.00 64 1004.5
20260505211421 4 271 4.8 12.9 0.00 0.00 0.00 63 1004.5
20260505210829 4 274 4.8 9.7 0.00 0.00 0.00 63 1004.5
20260505205912 4 264 4.8 9.7 0.00 0.00 0.00 62 1004.4
20260505204712 4 275 4.8 11.3 0.00 0.00 0.00 61 1004.3
20260505203914 5 285 3.2 8.0 0.00 0.00 0.00 61 1004.1
20260505202622 5 285 6.4 9.7 0.00 0.00 0.00 59 1003.9
20260505201449 5 275 3.2 8.0 0.00 0.00 0.00 59 1003.9
20260505200551 5 293 3.2 9.7 0.00 0.00 0.00 58 1003.8
20260505195129 5 290 4.8 12.9 0.00 0.00 0.00 55 1003.7
20260505193949 5 277 8.0 17.7 0.00 0.00 0.00 53 1003.6
20260505192959 6 273 6.4 12.9 0.00 0.00 0.00 51 1003.6
20260505191842 6 270 6.4 16.1 0.00 0.00 0.00 48 1003.5
20260505190912 6 268 4.8 12.9 0.00 0.00 0.00 47 1003.4
20260505190004 6 275 6.4 12.9 0.00 0.00 0.00 46 1003.3
20260505185305 6 269 6.4 14.5 0.00 0.00 0.00 45 1003.3
20260505184714 6 277 6.4 12.9 0.00 0.00 0.00 45 1003.2
20260505184129 7 284 8.0 16.1 0.00 0.00 0.00 44 1003.2
20260505183249 7 263 9.7 19.3 0.00 0.00 0.00 43 1003.0